sat.trackr.live / text

‹ back to catalog

CAPELLA-18 (ACADIA-8)

NORAD 67385 · 2026-004Y

PAYLOAD ACTIVE UNKNOWN

§ Identity

Operator
Country
US
Launch date
2026-01-11
Launch site
AFWTR
Launch vehicle
Mass (kg)
RCS (m²)

External: N2YO · Heavens-Above · Gunter

§ Orbital elements

Epoch: 2026-09-19T05:41:05.325216Z

Period
96.86 min
Inclination
97.8075°
Eccentricity
0.0000417
Mean motion
14.86632036 rev/d
Perigee alt
608.2 km
Apogee alt
608.8 km
Semi-major
6,986.6 km
B*
-3.2279e-4
RAAN
259.0899°
Arg perigee
69.2941°
Mean anomaly
290.8319°
Rev number
3,725

§ Raw data

CAPELLA-18 (ACADIA-8)1 67385U 26004Y   26262.23686719 -.00002915  00000+0 -32279-3 0  99952 67385  97.8075 259.0899 0000417  69.2941 290.8319 14.86632036 37250

JSON: /api/v1/satellites/67385 · /tle

For live sub-satellite position, see the globe view (requires WebGL).

§ Visibility from observer

Set your observer location to see the next 7 days of passes ≥ 10°. The values pass through the URL so the page stays shareable.

No JS? Fill the form by hand. The geolocation button needs JavaScript.